Home > Weather > Shizuoka > Past weeks

Flag for Japan Past Weather in Shizuoka, Japan — Yesterday and Last 2 Weeks

Now
77 °F

Mild.


Feels Like: 78 °F
Forecast: 72 / 85 °F
Wind: 7 mph from Northeast

Location: Omaezaki

Current Time: Aug 28, 2016 at 12:20:01 AM

Latest Report: Aug 27, 2016 at 11:00 PM


Visibility: 13 mi

Pressure: 29.67 "Hg

Humidity: 85%

Dew Point: 72 °F

Location of ShizuokaLocation

Past Weather in Shizuoka — Graph

°F

Shizuoka Temperature Yesterday

Maximum temperature yesterday: 86 °F (at 1:00 PM)
Minimum temperature yesterday: 75 °F (at 7:00 PM)
Average temperature yesterday: 80 °F

High & Low Weather Summary for the Past Weeks

 TemperatureHumidityPressure
High90 °F (Aug 16, 2:00 PM)98% (Aug 18, 3:00 AM)29.82 "Hg (Aug 18, 3:00 AM)
Low75 °F (Aug 14, 1:00 AM)58% (Aug 16, 2:00 PM)29.38 "Hg (Aug 17, 3:00 AM)
Average81 °F82%29.67 "Hg
* Reported Aug 12 11:00 PM — Aug 27 11:00 PM, Shizuoka, Weather by CustomWeather, © 2016

Note: Actual official high and low records may vary slightly from our data, if they occured in-between our weather recording intervals... More about our weather records

Advertising

Shizuoka Weather History for the Previous 24 Hours

Scroll right to see more
 ConditionsComfort  
Time TempWeatherWind HumidityBarometerVisibility
11:00 PM
Sat, Aug 27
77 °FMild.7 mph85%29.67 "Hg12 mi
10:00 PM76 °FMild.9 mph86%29.67 "Hg12 mi
9:00 PM76 °FMild.10 mph92%29.68 "Hg12 mi
8:00 PM75 °FLight rain. Overcast.13 mph95%29.67 "Hg12 mi
7:00 PM75 °FLight rain. Overcast.14 mph97%29.66 "Hg4 mi
6:00 PM76 °FRain. Overcast.17 mph97%29.63 "Hg2 mi
5:00 PM80 °FLight rain. Cloudy.15 mph89%29.64 "Hg3 mi
4:00 PM81 °FLight rain. Cloudy.15 mph86%29.62 "Hg11 mi
3:00 PM85 °FWarm.10 mph77%29.61 "Hg12 mi
2:00 PM86 °FWarm.12 mph73%29.62 "Hg12 mi
1:00 PM86 °FWarm.10 mph72%29.62 "Hg12 mi
12:00 PM85 °FWarm.9 mph75%29.65 "Hg12 mi
11:00 AM86 °FWarm.9 mph72%29.66 "Hg12 mi
10:00 AM85 °FWarm.6 mph77%29.66 "Hg12 mi
9:00 AM83 °FWarm.6 mph78%29.66 "Hg12 mi
8:00 AM82 °FWarm.5 mph85%29.66 "Hg12 mi
7:00 AM80 °FWarm.2 mph90%29.66 "Hg12 mi
6:00 AM78 °FWarm.2 mph94%29.65 "Hg9 mi
5:00 AM78 °FFog.3 mph93%29.64 "Hg3 mi
4:00 AM78 °FFog.7 mph91%29.64 "Hg5 mi
3:00 AM79 °FFog.7 mph90%29.65 "Hg3 mi
2:00 AM79 °FFog.6 mph91%29.65 "Hg3 mi
1:00 AM79 °FFog.7 mph90%29.66 "Hg4 mi
12:00 AM79 °FFog.6 mph91%29.66 "Hg4 mi
Weather by CustomWeather, © 2016

See weather overviewHow to use our weather pages